Flag for Switzerland Weather past 2 weeks in Köniz, Bern, Switzerland

Now
57 °F

Overcast.


Feels Like: 57 °F
Forecast: 58 / 73 °F
Wind: 1 mph from North

Location: Bern / Belp

Current Time: Jul 30, 2014 at 7:26:24 AM

Latest Report: Jul 30, 2014 at 6:50 AM


Visibility: N/A

Pressure: 29.86 "Hg

Humidity: 100%

Dew point: 57 °F

Location of KönizLocation

Historic Weather in Köniz — Graph

°F

Köniz temperature yesterday

Maximum temperature yesterday: 68 °F (at 1:50 PM)
Minimum temperature yesterday: 57 °F (at 4:50 AM)
Average temperature yesterday: 62 °F

Past Weeks' High & Low Weather Summary

 TemperatureHumidityPressure
High88 °F (Jul 18, 2:50 PM)100% (Jul 16, 4:20 AM)30.21 "Hg (Jul 16, 4:20 AM)
Low52 °F (Jul 16, 5:20 AM)29% (Jul 17, 6:20 PM)29.83 "Hg (Jul 28, 2:50 PM)
Average66 °F79%30.00 "Hg
* Reported Jul 15 6:20 AM — Jul 30 6:20 AM, Köniz, Weather by CustomWeather, © 2014

Note: Actual official high and low records may vary slightly from our data, if they occured in-between our weather recording intervals... More about our weather records

Advertising

Köniz weather history for previous 24 hours

 ConditionsComfort  
Time TempWeatherWind HumidityBarometerVisibility
6:20 AM
Jul 30
57 °FOvercast.2 mph100%29.86 "HgN/A
5:50 AM57 °FPartly cloudy.3 mph100%29.86 "HgN/A
5:20 AM57 °FLow clouds.2 mph100%29.86 "HgN/A
4:50 AM57 °FPartly cloudy.2 mph94%29.86 "HgN/A
4:20 AM57 °FPassing clouds.2 mph94%29.86 "HgN/A
3:50 AM59 °FPassing clouds.1 mph94%29.86 "HgN/A
3:20 AM59 °FOvercast.No wind94%29.86 "HgN/A
2:50 AM59 °FMostly cloudy.1 mph94%29.89 "HgN/A
2:20 AM59 °FPartly cloudy.1 mph94%29.89 "HgN/A
1:50 AM59 °FPartly cloudy.2 mph94%29.86 "HgN/A
1:20 AM59 °FPassing clouds.3 mph94%29.86 "HgN/A
12:50 AM59 °FPassing clouds.3 mph94%29.86 "HgN/A
12:20 AM61 °FPartly cloudy.3 mph88%29.86 "HgN/A
11:50 PM
Jul 29
61 °FPassing clouds.5 mph83%29.89 "HgN/A
11:20 PM63 °FPartly cloudy.5 mph77%29.86 "HgN/A
10:50 PM63 °FOvercast.5 mph83%29.89 "HgN/A
10:20 PM63 °FMostly cloudy.6 mph77%29.86 "HgN/A
9:50 PM63 °FPartly sunny.5 mph83%29.86 "HgN/A
9:20 PM63 °FPartly sunny.3 mph88%29.86 "HgN/A
8:50 PM63 °FBroken clouds.3 mph88%29.83 "HgN/A
8:20 PM64 °FBroken clouds.2 mph78%29.83 "HgN/A
7:50 PM66 °FBroken clouds.3 mph73%29.83 "HgN/A
7:20 PM66 °FPartly sunny.2 mph68%29.83 "HgN/A
6:50 PM66 °FPartly sunny.5 mph78%29.83 "HgN/A
6:20 PM64 °FPartly sunny.2 mph78%29.83 "HgN/A
5:50 PM64 °FPartly sunny.5 mph78%29.83 "HgN/A
5:20 PM64 °FPartly sunny.6 mph78%29.83 "HgN/A
4:50 PM64 °FOvercast.7 mph78%29.83 "HgN/A
4:20 PM64 °FScattered showers. Broken clouds.6 mph78%29.83 "HgN/A
3:50 PM68 °FBroken clouds.3 mph60%29.83 "HgN/A
3:20 PM68 °FBroken clouds.2 mph64%29.83 "HgN/A
2:50 PM66 °FBroken clouds.3 mph68%29.83 "HgN/A
2:20 PM66 °FBroken clouds.2 mph73%29.83 "HgN/A
1:50 PM68 °FBroken clouds.1 mph69%29.83 "HgN/A
1:20 PM64 °FBroken clouds.1 mph78%29.83 "HgN/A
12:50 PM64 °FBroken clouds.1 mph73%29.83 "HgN/A
12:20 PM64 °FBroken clouds.2 mph73%29.83 "HgN/A
11:50 AM64 °FPartly sunny.1 mph73%29.83 "HgN/A
11:20 AM64 °FOvercast.3 mph78%29.83 "HgN/A
10:50 AM61 °FBroken clouds.5 mph88%29.83 "HgN/A
10:20 AM61 °FBroken clouds.3 mph88%29.83 "HgN/A
9:50 AM59 °FLight rain. Broken clouds.5 mph88%29.83 "HgN/A
9:20 AM57 °FBroken clouds.7 mph94%29.83 "HgN/A
8:50 AM57 °FBroken clouds.6 mph100%29.83 "HgN/A
8:20 AM57 °FLight rain. Low clouds.6 mph100%29.83 "Hg5 mi
7:50 AM57 °FRain. Low clouds.5 mph100%29.83 "Hg4 mi
7:20 AM57 °FLight rain. Broken clouds.3 mph94%29.83 "Hg5 mi
Weather by CustomWeather, © 2014

See weather overviewHow to use our weather pages